Home > Weather > 's-Hertogenbosch > Past weeks

Flag for Netherlands Past Weather in 's-Hertogenbosch, Netherlands — Yesterday and Last 2 Weeks

Now
55 °F

Overcast.


Feels Like: 54 °F
Forecast: 46 / 70 °F
Wind: 7 mph from Southwest

Location: Volkel

Current Time: May 25, 2016 at 1:18:51 PM

Latest Report: May 25, 2016 at 12:55 PM


Visibility: N/A

Pressure: 29.98 "Hg

Humidity: 77%

Dew Point: 48 °F

Location of 's-HertogenboschLocation

Past Weather in 's-Hertogenbosch — Graph

°F

's-Hertogenbosch Temperature Yesterday

Maximum temperature yesterday: 59 °F (at 3:25 PM)
Minimum temperature yesterday: 50 °F (at 2:55 AM)
Average temperature yesterday: 53 °F

High & Low Weather Summary for the Past Weeks

 TemperatureHumidityPressure
High79 °F (May 12, 3:25 PM)100% (May 20, 12:25 AM)30.15 "Hg (May 20, 12:25 AM)
Low37 °F (May 16, 5:25 AM)25% (May 13, 3:25 PM)29.47 "Hg (May 12, 5:25 PM)
Average58 °F72%29.87 "Hg
* Reported May 10 11:25 AM — May 25 11:59 AM, 's-Hertogenbosch, Weather by CustomWeather, © 2016

Note: Actual official high and low records may vary slightly from our data, if they occured in-between our weather recording intervals... More about our weather records

Advertising

's-Hertogenbosch Weather History for the Previous 24 Hours

Scroll right to see more
 ConditionsComfort  
Time TempWeatherWind HumidityBarometerVisibility
11:59 AM
Wed, May 25
55 °FMostly cloudy.5 mph77%29.98 "HgN/A
11:25 AM54 °FOvercast.5 mph82%29.98 "HgN/A
10:55 AM54 °FMostly cloudy.6 mph82%29.98 "HgN/A
10:25 AM52 °FBroken clouds.6 mph88%29.98 "HgN/A
9:55 AM52 °FMore clouds than sun.6 mph88%29.98 "HgN/A
9:25 AM52 °FDrizzle. Mostly cloudy.6 mph88%29.98 "HgN/A
8:55 AM52 °FOvercast.8 mph82%29.98 "HgN/A
8:25 AM52 °FLow clouds.6 mph88%29.98 "HgN/A
7:55 AM52 °FOvercast.6 mph88%29.98 "HgN/A
7:25 AM50 °FOvercast.5 mph94%29.98 "HgN/A
6:55 AM50 °FOvercast.5 mph88%29.98 "HgN/A
6:25 AM48 °FOvercast.2 mph94%29.98 "HgN/A
5:55 AM50 °FMostly cloudy.2 mph88%29.98 "HgN/A
5:25 AM48 °FOvercast.3 mph94%29.98 "HgN/A
5:02 AM50 °FMostly cloudy.3 mph88%29.98 "HgN/A
4:55 AM50 °FOvercast.5 mph82%29.98 "HgN/A
4:25 AM50 °FOvercast.3 mph88%29.98 "HgN/A
3:55 AM50 °FOvercast.3 mph88%29.98 "HgN/A
3:25 AM50 °FOvercast.3 mph82%29.98 "HgN/A
2:55 AM50 °FOvercast.5 mph82%29.98 "HgN/A
2:25 AM50 °FOvercast.5 mph82%30.01 "HgN/A
1:55 AM50 °FOvercast.3 mph88%30.01 "HgN/A
1:25 AM50 °FMostly cloudy.3 mph82%30.01 "HgN/A
12:55 AM50 °FOvercast.3 mph82%30.01 "HgN/A
12:25 AM50 °FOvercast.3 mph82%30.01 "HgN/A
11:55 PM
Tue, May 24
50 °FOvercast.3 mph82%30.01 "HgN/A
11:25 PM52 °FOvercast.3 mph77%30.01 "HgN/A
10:55 PM52 °FOvercast.2 mph77%30.01 "HgN/A
10:25 PM52 °FOvercast.5 mph77%30.01 "HgN/A
9:55 PM52 °FOvercast.5 mph77%30.01 "HgN/A
9:25 PM52 °FOvercast.6 mph77%30.01 "HgN/A
8:55 PM52 °FOvercast.5 mph77%30.01 "HgN/A
8:25 PM54 °FMostly cloudy.6 mph67%30.01 "HgN/A
7:55 PM54 °FMostly cloudy.7 mph72%30.01 "HgN/A
7:25 PM54 °FMostly cloudy.8 mph72%30.01 "HgN/A
6:55 PM55 °FMostly cloudy.8 mph67%30.01 "HgN/A
6:25 PM55 °FMostly cloudy.10 mph63%30.01 "HgN/A
5:55 PM55 °FPassing clouds.10 mph63%30.01 "HgN/A
5:25 PM55 °FCool.9 mph67%30.01 "HgN/A
4:55 PM57 °FPartly sunny.9 mph67%30.01 "HgN/A
4:25 PM57 °FScattered clouds.8 mph63%30.01 "HgN/A
3:55 PM57 °FScattered clouds.9 mph63%30.01 "HgN/A
3:25 PM59 °FPartly sunny.10 mph59%30.04 "HgN/A
2:55 PM57 °FPartly sunny.10 mph63%30.04 "HgN/A
2:25 PM57 °FScattered clouds.9 mph63%30.04 "HgN/A
1:55 PM57 °FMore clouds than sun.8 mph67%30.04 "HgN/A
1:25 PM57 °FPartly sunny.8 mph67%30.04 "HgN/A
Weather by CustomWeather, © 2016

See weather overviewHow to use our weather pages